Retour au catalogue

COSMOS 1275 DEB

ActifPO
NORAD 42213·DEBRIS·🇷🇺 Russia

Lancé Jun 4, 1981 depuis Plesetsk Cosmodrome

Loading…

Prochains Passages (prochaines 24 heures)

TLE

VieillissantSource: Space-Track

Époque: Sep 10, 2026, 00:28 UTC

1 42213U 81053UD  26253.01970207  .00002572  00000-0  11019-2 0  9993
2 42213  82.8193   4.6491 0043130 224.9169 134.8522 14.24053645216180

Suivez COSMOS 1275 DEB en temps réel avec AllMySat

Download on the App Store